Other Public Products
Issued by NWS Grand Forks, ND

Home | Current Version | Previous Version | Text Only | Print | Product List | Glossary Off
Versions: 1 2 3 4 5 6 7 8 9 10 11 12 13 14 15 16 17 18 19 20 21 22 23 24 25 26 27 28 29 30 31 32 33 34 35 36 37 38 39 40 41 42 43 44 45 46 47 48 49 50

000
FPUS83 KFGF 211210
OPUFGF
PRAIRIE TO PINES WEATHER ROUNDUP
NATIONAL WEATHER SERVICE EASTERN NORTH DAKOTA/GRAND FORKS ND
700 AM CDT SAT APR 21 2018

 **SATELLITE DATA USED TO AUGMENT SKY COVER AT AUTOMATED STATIONS**
 *****  WEATHER ACROSS EASTERN NORTH DAKOTA  *****

CITY           SKY/WX    TMP DP  RH WIND       PRES   REMARKS
GRAND FORKS    CLOUDY    34  34 100 S7        30.35R FOG
6HR MIN TEMP:  33; 6HR MAX TEMP:  38;

GRND FORKS AFB CLOUDY    36  36  99 S8        30.33S
GRND FORKS NWS   N/A     35  34  96 S6        30.32R
BUXTON           N/A     35  35  99 SE6         N/A
DEVILS LAKE    FAIR      31  30  96 SE3       30.31R
6HR MIN TEMP:  31; 6HR MAX TEMP:  35;

FARGO          FAIR      34  32  92 S8        30.37R
6HR MIN TEMP:  33; 6HR MAX TEMP:  40;

WAHPETON ARPT  FAIR      32  30  93 SE5       30.39R
$$

 *****  WEATHER ACROSS CENTRAL AND WESTERN NORTH DAKOTA  *****

CITY           SKY/WX    TMP DP  RH WIND       PRES   REMARKS
JAMESTOWN      CLOUDY    33  32  96 S3        30.32R FOG
6HR MIN TEMP:  33; 6HR MAX TEMP:  39;

BISMARCK       FAIR      37  35  92 S5        30.27S
6HR MIN TEMP:  34; 6HR MAX TEMP:  42;

MINOT          FAIR      39  35  86 S9        30.20S
6HR MIN TEMP:  39; 6HR MAX TEMP:  48;

MINOT AFB      FAIR      37  34  89 S12       30.19S
6HR MIN TEMP:  37; 6HR MAX TEMP:  44;

GARRISON         N/A     33  32  96 S5        30.22R
6HR MIN TEMP:  33; 6HR MAX TEMP:  39;

WILLISTON      FAIR      38  35  89 S5        30.15S
6HR MIN TEMP:  37; 6HR MAX TEMP:  47;

DICKINSON      CLOUDY    40  37  89 S20       30.16F
6HR MIN TEMP:  36; 6HR MAX TEMP:  40;

HETTINGER      FAIR      37  35  92 S10       30.22S
6HR MIN TEMP:  37; 6HR MAX TEMP:  40;

$$

 *****  OTHER OBSERVATIONS NORTHEAST NORTH DAKOTA  *****

CITY           SKY/WX    TMP DP  RH WIND       PRES   REMARKS
WALHALLA       FAIR      41  43 100 S5        30.29S
LANGDON        CLOUDY    37  37 100 S12       30.29S
CAVALIER         N/A     36  36 100 S10       30.30F
GRAFTON        PTSUNNY   34  34 100 S8        30.35S FOG
CANDO          FAIR      30  30 100 SE6       30.30S FOG     WCI  24
FORT TOTTEN      N/A     34  33  94 SE6       29.95S
ROLLA          CLOUDY    34  34 100 S7        30.25S
RUGBY          FAIR      34  34 100 S9        30.26R
 ***** THE ABOVE OBSERVATIONS ARE NON NWS ARE NOT QUALITY
        CONTROLLED AND MAY MIS-REPORT RAIN FOR SNOW...
$$

 *****  OTHER OBSERVATIONS SOUTHEAST NORTH DAKOTA *****

CITY           SKY/WX    TMP DP  RH WIND       PRES   REMARKS
COOPERSTOWN    PTSUNNY   34  34 100 S5        30.34R FOG
VALLEY CITY    CLOUDY    34  34 100 S5        30.35S FOG
OAKES            N/A     36  37 100 S6        30.35R
GWINNER          N/A     36  36 100 SW5       30.36R
SHEYENNE NWR     N/A     29  29 100 SE2       29.95S
BUFFALO          N/A     34  33  95 NE6         N/A
WYNDMERE       NOT AVBL
 ***** THE ABOVE OBSERVATIONS ARE NON NWS ARE NOT QUALITY
       CONTROLLED AND MAY MIS-REPORT RAIN FOR SNOW...
$$

  *****  WEATHER ACROSS NORTHERN MINNESOTA  *****

CITY           SKY/WX    TMP DP  RH WIND       PRES   REMARKS
FLAG ISLAND    FAIR      34  28  80 SE5       30.35S
WARROAD        FAIR      34  28  80 S3        30.36S
ROSEAU         FAIR      34  28  80 S6        30.35S
HALLOCK        CLOUDY    36  34  93 S13       30.33S FOG
THF RVR FALLS  FAIR      32  30  92 SE6       30.37R
6HR MIN TEMP:  31; 6HR MAX TEMP:  39;

HALSTAD        NOT AVBL
FOSSTON        FAIR      34  28  80 S6        30.38R
BAUDETTE       FAIR      30  29  96 CALM      30.37R
6HR MIN TEMP:  28; 6HR MAX TEMP:  34;

WASKISH        FAIR      27  25  93 CALM      30.39R
CROOKSTON      FAIR      34  32  93 S8        30.38R
$$
  *****  WEATHER ACROSS CENTRAL AND WEST MINNESOTA  *****

CITY           SKY/WX    TMP DP  RH WIND       PRES   REMARKS
BEMIDJI        FAIR      25  22  89 CALM      30.38S
6HR MIN TEMP:  24; 6HR MAX TEMP:  32;

PARK RAPIDS    FAIR      30  24  78 CALM      30.38S
6HR MIN TEMP:  27; 6HR MAX TEMP:  36;

WADENA         FAIR      27  27 100 CALM      30.40R FOG
DETROIT LAKES  FAIR      32  30  93 CALM      30.39R
MOORHEAD       FAIR      32  28  86 SE7       30.39R
FERGUS FALLS   FAIR      34  28  80 SE7       30.38R
ELBOW LAKE     FAIR      33  29  85 SE7       30.40R
6HR MIN TEMP:  32; 6HR MAX TEMP:  34;

MORRIS MN      FAIR      34  30  86 SE6       30.39R
STAPLES        FAIR      25  25 100 CALM      30.40S
WHEATON        FAIR      32  30  93 SE7       30.40S FOG
$$
  *****  WEATHER ELSEWHERE ACROSS MINNESOTA  *****

CITY           SKY/WX    TMP DP  RH WIND       PRES   REMARKS
DULUTH         FAIR      30  22  72 NW3       30.40R
6HR MIN TEMP:  28; 6HR MAX TEMP:  40;

INTRNTL FALLS  FAIR      27  25  92 CALM      30.38R
6HR MIN TEMP:  25; 6HR MAX TEMP:  32;

ELY            FAIR      25  21  86 CALM      30.39S
CLOQUET        FAIR      28  19  69 CALM      30.41R
BRAINERD       FAIR      27  22  81 CALM      30.42R
6HR MIN TEMP:  24; 6HR MAX TEMP:  38;

HIBBING        FAIR      24  21  88 CALM      30.39R
6HR MIN TEMP:  22; 6HR MAX TEMP:  31;

ALEXANDRIA     FAIR      34  27  75 SE3       30.40R
6HR MIN TEMP:  32; 6HR MAX TEMP:  38;

SAINT CLOUD    FAIR      28  25  88 CALM      30.43R
6HR MIN TEMP:  27; 6HR MAX TEMP:  31;

MINNEAPOLIS    MOCLDY    38  28  67 CALM      30.44R
6HR MIN TEMP:  36; 6HR MAX TEMP:  42;

$$

  *****  WEATHER ACROSS SOUTH DAKOTA  *****

CITY           SKY/WX    TMP DP  RH WIND       PRES   REMARKS
SIOUX FALLS    CLOUDY    38  29  70 CALM      30.35R
6HR MIN TEMP:  37; 6HR MAX TEMP:  41;

BROOKINGS      CLOUDY    37  32  82 N3        30.36S
WATERTOWN      MOCLDY    36  32  85 S5        30.35S
6HR MIN TEMP:  35; 6HR MAX TEMP:  38;

HURON          CLOUDY    38  35  89 CALM      30.34S
6HR MIN TEMP:  38; 6HR MAX TEMP:  41; 6HR PCP: TRACE;

SISSETON         N/A     34  33  96 SE6       30.36R
ABERDEEN       CLOUDY    38  35  89 SE6       30.36R
6HR MIN TEMP:  37; 6HR MAX TEMP:  42;

MITCHELL       CLOUDY    37  33  85 E3        30.34S
PIERRE         FAIR      39  39 100 SE7       30.29S FOG
6HR MIN TEMP:  38; 6HR MAX TEMP:  42; 6HR PCP:  0.01;

MOBRIDGE       CLOUDY    42  38  85 SE7       30.27F
RAPID CITY     CLOUDY    38  37  97 SE10      30.21R FOG
6HR MIN TEMP:  36; 6HR MAX TEMP:  39;

$$

  *****  SOME WEATHER IN NEARBY STATES *****

CITY           SKY/WX    TMP DP  RH WIND       PRES   REMARKS
GLASGOW MT     FAIR      38  35  89 E12       30.04S
6HR MIN TEMP:  38; 6HR MAX TEMP:  48;

GREAT FALLS MT FAIR      39  27  62 S12       29.99F
6HR MIN TEMP:  33; 6HR MAX TEMP:  44;

CHEYENNE WY    LGT SNOW  30  30 100 CALM      30.13S FOG
6HR MIN TEMP:  30; 6HR MAX TEMP:  32; 6HR PCP:  0.04;

SCOTTSBLUFF NE LGT SNOW  34  32  92 E6        30.20S
6HR MIN TEMP:  33; 6HR MAX TEMP:  37; 6HR PCP:  0.10;

OMAHA NE       CLOUDY    50  26  39 VRB5      30.28F
6HR MIN TEMP:  48; 6HR MAX TEMP:  53;

DES MOINES IA  CLOUDY    46  31  55 E9        30.36S
6HR MIN TEMP:  46; 6HR MAX TEMP:  52;

DAVENPORT IA   FAIR      43  25  49 E6        30.43R
6HR MIN TEMP:  43; 6HR MAX TEMP:  47;

CHICAGO IL     CLOUDY    43  22  43 E3        30.43S
6HR MIN TEMP:  39; 6HR MAX TEMP:  43;

EAU CLAIRE WI  FAIR      32  26  78 CALM      30.43R
6HR MIN TEMP:  28; 6HR MAX TEMP:  32;

LA CROSSE WI   CLOUDY    37  30  75 SE3       30.43R
6HR MIN TEMP:  35; 6HR MAX TEMP:  39;

$$

  *****  SOME NATIONAL WEATHER *****

CITY           SKY/WX    TMP DP  RH WIND       PRES   REMA



USA.gov is the U.S. government's official web portal to all federal, state and local government web resources and services.